When you browse on this site, cookies collect data to enhance your experience and personalize the content and advertising you see.
Visit our Privacy Policy to learn more. By continuing to use the site, you agree to this use of cookies and data.
  • In Romania
  • List of Countries
  • For 7 days
  • Water Temperature
  • Satellite Maps
  • Weather Map
  • Weather Widgets
  • user-avatar
    Login

    Hourly Weather Staraya Toropa

    Today, 19 April, Friday

    Time Temperature Precipitation Wind Pressure Humidity
    00:00 +4°C° 0 mm 2 mps 756 mmHg 75%
    01:00 +3°C° 0 mm 2 mps 756 mmHg 78%
    02:00 +3°C° 0 mm 2 mps 756 mmHg 82%
    03:00 +3°C° 0 mm 1 mps 756 mmHg 85%
    04:00 +3°C° 0 mm 1 mps 757 mmHg 88%
    05:00 +3°C° 0 mm 1 mps 757 mmHg 90%
    06:00 +5°C° 0 mm 1 mps 757 mmHg 81%
    07:00 +6°C° 0 mm 1 mps 757 mmHg 72%
    08:00 +8°C° 0 mm 1 mps 757 mmHg 63%
    09:00 +10°C° 0 mm 1 mps 757 mmHg 56%
    10:00 +12°C° 0 mm 1 mps 757 mmHg 49%
    11:00 +13°C° 0 mm 1 mps 757 mmHg 41%
    12:00 +14°C° 0 mm 1 mps 757 mmHg 39%
    13:00 +14°C° 0 mm 1 mps 756 mmHg 36%
    14:00 +15°C° 0 mm 1 mps 756 mmHg 33%
    15:00 +15°C° 0 mm 2 mps 755 mmHg 34%
    16:00 +14°C° 0 mm 2 mps 755 mmHg 35%
    17:00 +14°C° 0 mm 2 mps 754 mmHg 36%
    18:00 +12°C° 0 mm 2 mps 754 mmHg 41%
    19:00 +11°C° 0 mm 1 mps 754 mmHg 46%
    20:00 +10°C° 0 mm 1 mps 754 mmHg 51%
    21:00 +9°C° 0 mm 1 mps 754 mmHg 52%
    22:00 +9°C° 0 mm 1 mps 753 mmHg 53%
    23:00 +9°C° 0 mm 1 mps 753 mmHg 54%

    Tomorrow, 20 April, Saturday

    Time Temperature Precipitation Wind Pressure Humidity
    00:00 +8°C° 0 mm 1 mps 753 mmHg 60%
    01:00 +7°C° 0 mm 2 mps 753 mmHg 65%
    02:00 +7°C° 0 mm 2 mps 753 mmHg 71%
    03:00 +7°C° 0.2 mm 2 mps 753 mmHg 76%
    04:00 +6°C° 0.2 mm 2 mps 752 mmHg 81%
    05:00 +6°C° 0.2 mm 2 mps 752 mmHg 85%
    06:00 +7°C° 0.1 mm 2 mps 752 mmHg 82%
    07:00 +7°C° 0.1 mm 3 mps 752 mmHg 79%
    08:00 +8°C° 0.1 mm 3 mps 752 mmHg 76%
    09:00 +9°C° 0 mm 3 mps 752 mmHg 66%
    10:00 +10°C° 0 mm 3 mps 752 mmHg 57%
    11:00 +11°C° 0 mm 3 mps 751 mmHg 48%
    12:00 +12°C° 0 mm 3 mps 751 mmHg 45%
    13:00 +12°C° 0 mm 3 mps 751 mmHg 42%
    14:00 +12°C° 0 mm 3 mps 751 mmHg 39%
    15:00 +12°C° 0 mm 3 mps 751 mmHg 41%
    16:00 +11°C° 0 mm 3 mps 750 mmHg 42%
    17:00 +11°C° 0 mm 3 mps 750 mmHg 44%
    18:00 +9°C° 0 mm 3 mps 751 mmHg 51%
    19:00 +8°C° 0 mm 2 mps 751 mmHg 58%
    20:00 +6°C° 0 mm 2 mps 751 mmHg 65%
    21:00 +5°C° 0 mm 2 mps 751 mmHg 68%
    22:00 +5°C° 0 mm 2 mps 751 mmHg 71%
    23:00 +4°C° 0 mm 2 mps 751 mmHg 74%

    Day after tomorrow, 21 April, Sunday

    Time Temperature Precipitation Wind Pressure Humidity
    00:00 +3°C° 0 mm 2 mps 751 mmHg 78%
    01:00 +3°C° 0 mm 2 mps 751 mmHg 81%
    02:00 +2°C° 0 mm 2 mps 751 mmHg 85%
    03:00 +2°C° 0 mm 2 mps 752 mmHg 89%
    04:00 +2°C° 0 mm 2 mps 752 mmHg 93%
    05:00 +2°C° 0 mm 2 mps 752 mmHg 96%
    06:00 +4°C° 0 mm 2 mps 752 mmHg 88%
    07:00 +6°C° 0 mm 2 mps 752 mmHg 80%
    08:00 +8°C° 0 mm 2 mps 753 mmHg 72%
    09:00 +9°C° 0 mm 3 mps 753 mmHg 64%
    10:00 +11°C° 0 mm 3 mps 753 mmHg 55%
    11:00 +13°C° 0 mm 3 mps 753 mmHg 46%
    12:00 +13°C° 0 mm 3 mps 753 mmHg 45%
    13:00 +15°C° 0 mm 2 mps 753 mmHg 44%
    14:00 +16°C° 0 mm 2 mps 753 mmHg 43%
    15:00 +15°C° 0 mm 2 mps 752 mmHg 45%
    16:00 +15°C° 0 mm 2 mps 752 mmHg 48%
    17:00 +15°C° 0 mm 2 mps 752 mmHg 51%
    18:00 +13°C° 0 mm 2 mps 753 mmHg 59%
    19:00 +10°C° 0 mm 2 mps 753 mmHg 67%
    20:00 +10°C° 0 mm 1 mps 753 mmHg 75%
    21:00 +9°C° 0 mm 1 mps 753 mmHg 78%
    22:00 +8°C° 0 mm 1 mps 754 mmHg 81%
    23:00 +8°C° 0 mm 1 mps 754 mmHg 84%

    22 April, Monday

    Time Temperature Precipitation Wind Pressure Humidity
    00:00 +7°C° 0 mm 1 mps 754 mmHg 86%
    01:00 +7°C° 0 mm 1 mps 754 mmHg 89%
    02:00 +7°C° 0 mm 1 mps 755 mmHg 91%
    03:00 +6°C° 0 mm 1 mps 755 mmHg 91%
    04:00 +6°C° 0 mm 1 mps 755 mmHg 91%
    05:00 +6°C° 0 mm 1 mps 755 mmHg 91%
    06:00 +8°C° 0 mm 1 mps 756 mmHg 81%
    07:00 +10°C° 0 mm 1 mps 756 mmHg 70%
    08:00 +12°C° 0 mm 1 mps 756 mmHg 59%
    09:00 +13°C° 0 mm 1 mps 756 mmHg 54%
    10:00 +15°C° 0 mm 1 mps 756 mmHg 48%
    11:00 +18°C° 0 mm 1 mps 756 mmHg 43%
    12:00 +18°C° 0 mm 1 mps 756 mmHg 42%
    13:00 +18°C° 0 mm 1 mps 756 mmHg 42%
    14:00 +16°C° 0 mm 1 mps 756 mmHg 41%
    15:00 +16°C° 0 mm 1 mps 756 mmHg 43%
    16:00 +16°C° 0 mm 1 mps 756 mmHg 44%
    17:00 +15°C° 0 mm 1 mps 756 mmHg 46%
    18:00 +14°C° 0 mm 1 mps 756 mmHg 50%
    19:00 +12°C° 0 mm 1 mps 756 mmHg 55%
    20:00 +11°C° 0 mm 1 mps 756 mmHg 59%
    21:00 +10°C° 0 mm 1 mps 756 mmHg 59%
    22:00 +10°C° 0 mm 1 mps 757 mmHg 60%
    23:00 +10°C° 0 mm 1 mps 757 mmHg 60%

    23 April, Tuesday

    Time Temperature Precipitation Wind Pressure Humidity
    00:00 +9°C° 0 mm 1 mps 757 mmHg 61%
    01:00 +9°C° 0 mm 1 mps 757 mmHg 61%
    02:00 +9°C° 0 mm 1 mps 758 mmHg 62%
    03:00 +9°C° 0 mm 1 mps 758 mmHg 63%
    04:00 +8°C° 0 mm 1 mps 758 mmHg 65%
    05:00 +8°C° 0 mm 1 mps 758 mmHg 66%
    06:00 +10°C° 0 mm 1 mps 758 mmHg 60%
    07:00 +12°C° 0 mm 1 mps 758 mmHg 54%
    08:00 +14°C° 0 mm 1 mps 758 mmHg 48%
    09:00 +15°C° 0 mm 1 mps 758 mmHg 44%
    10:00 +16°C° 0 mm 0 mps 758 mmHg 40%
    11:00 +18°C° 0 mm 0 mps 758 mmHg 36%
    12:00 +18°C° 0 mm 0 mps 758 mmHg 36%
    13:00 +18°C° 0 mm 0 mps 758 mmHg 36%
    14:00 +17°C° 0 mm 0 mps 757 mmHg 36%
    15:00 +19°C° 0 mm 1 mps 757 mmHg 37%
    16:00 +19°C° 0 mm 1 mps 757 mmHg 37%
    17:00 +18°C° 0 mm 1 mps 757 mmHg 38%
    18:00 +15°C° 0 mm 1 mps 757 mmHg 44%
    19:00 +14°C° 0 mm 1 mps 757 mmHg 50%
    20:00 +12°C° 0 mm 1 mps 757 mmHg 56%
    21:00 +11°C° 0 mm 1 mps 757 mmHg 58%
    22:00 +11°C° 0 mm 1 mps 757 mmHg 61%
    23:00 +10°C° 0 mm 1 mps 757 mmHg 64%

    24 April, Wednesday

    Time Temperature Precipitation Wind Pressure Humidity
    00:00 +9°C° 0 mm 1 mps 757 mmHg 66%
    01:00 +8°C° 0 mm 0 mps 757 mmHg 67%
    02:00 +8°C° 0 mm 0 mps 757 mmHg 69%
    03:00 +8°C° 0 mm 1 mps 758 mmHg 70%
    04:00 +8°C° 0 mm 1 mps 758 mmHg 72%
    05:00 +8°C° 0 mm 1 mps 758 mmHg 73%
    06:00 +10°C° 0 mm 1 mps 758 mmHg 66%
    07:00 +12°C° 0 mm 1 mps 758 mmHg 59%
    08:00 +14°C° 0 mm 1 mps 758 mmHg 53%
    09:00 +15°C° 0 mm 2 mps 758 mmHg 48%
    10:00 +17°C° 0 mm 2 mps 757 mmHg 44%
    11:00 +18°C° 0 mm 2 mps 757 mmHg 39%
    12:00 +18°C° 0 mm 2 mps 757 mmHg 38%
    13:00 +19°C° 0 mm 2 mps 757 mmHg 37%
    14:00 +19°C° 0 mm 3 mps 756 mmHg 36%
    15:00 +19°C° 0 mm 3 mps 756 mmHg 37%
    16:00 +19°C° 0 mm 3 mps 756 mmHg 38%
    17:00 +18°C° 0 mm 3 mps 755 mmHg 40%
    18:00 +16°C° 0 mm 2 mps 755 mmHg 47%
    19:00 +15°C° 0 mm 2 mps 755 mmHg 54%
    20:00 +13°C° 0 mm 1 mps 755 mmHg 62%
    21:00 +12°C° 0 mm 1 mps 755 mmHg 64%
    22:00 +11°C° 0 mm 1 mps 756 mmHg 67%
    23:00 +11°C° 0 mm 1 mps 756 mmHg 70%
    Show more